Preview of NWS' New Version of Forecast
This preview is not operational and should not be used for support decisions.

Regional Weather Roundup (RWR)

Issued by National Weather Service (NWS)

                            
000
ASUS43 KLOT 200809
RWRIL 

ILLINOIS REGIONAL WEATHER ROUNDUP
NATIONAL WEATHER SERVICE CHICAGO/ROMEOVILLE IL
300 AM CDT MON MAY 20 2019

NOTE: "FAIR" INDICATES FEW OR NO CLOUDS BELOW 12,000 FEET WITH NO
SIGNIFICANT WEATHER AND/OR OBSTRUCTIONS TO VISIBILITY.

* THESE STATIONS ARE NOT UNDER NWS QUALITY CONTROL. THEY ALSO MAY NOT
  REPORT WEATHER SUCH AS PRECIPITATION OR FOG.

ILZ001-002-007-009-015-016-024-200900-
NORTHWEST ILLINOIS
  
CITY           SKY/WX    TMP DP  RH WIND       PRES   REMARKS
MOLINE         MOCLDY    49  42  77 NW17G26   29.95R                  
STERLING*      MOCLDY    48  43  82 W15       29.92R                  
$$

ILZ003-004-008-010-011-017-018-200900-
NORTH CENTRAL ILLINOIS
  
CITY           SKY/WX    TMP DP  RH WIND       PRES   REMARKS
ROCKFORD       MOCLDY    49  40  71 W15       29.91S                  
FREEPORT*      CLOUDY    46  40  81 NW13G21   29.93R                  
ROCHELLE*      MOCLDY    49  45  85 W14G20    29.90R                  
DE KALB*       CLOUDY    49  44  82 W15G23    29.89R                  
PERU*          MOCLDY    49  46  88 W12       29.92R                  
$$

ILZ005-006-012>014-019>023-200900-
NORTHEAST ILLINOIS
  
CITY           SKY/WX    TMP DP  RH WIND       PRES   REMARKS
CHICAGO-OHARE  CLOUDY    52  43  71 W10       29.86R                  
CHICAGO-MIDWAY CLOUDY    53  46  77 W17G25    29.87R                  
AURORA         CLOUDY    50  46  86 W14G23    29.88R                  
LANSING*       CLOUDY    55  48  78 W12G18    29.87R                  
JOLIET*        CLOUDY    55  50  84 W9        29.89R                  
WAUKEGAN       CLOUDY    51  41  68 W6        29.84R                  
DUPAGE AIRPORT CLOUDY    52  43  71 W10       29.87R                  
KANKAKEE*      CLOUDY    54  49  83 W12       29.91R                  
WHEELING       CLOUDY    54  41  61 W9        29.86R                  
MORRIS*        MOCLDY    52  48  86 W12       29.89R                  
ROMEOVILLE*    CLOUDY    53  47  82 W14G24    29.88R                  
NORTHERLY ISL    N/A     53  43  68 W12         N/A                   
$$

LMZ740>746-200900-
SOUTHERN LAKE MICHIGAN
  
STATION/POSITION SKY/WX   TEMP    WIND        PRES    VSBY  WAVE
                          AIR SEA DIR/SP/G                  HT/PER
                          (F)     (DEG/KT/KT) (MB)    (MI)  (FT/S)
SOUTHERN BUOY              42 39  300/  8/ 10 1010.8R         2/ 6
WINTHROP HARBOR            50 47  290/ 12/ 17   N/A           1/ 6
WAUKEGAN HARBOR            50 47  240/ 12/ 17   N/A           1/ 6
WILMETTE HARBOR            52     270/ 14/ 17 1011.1          2/ 3
HARRISON CRIB              54     280/ 14/ 15   N/A
NORTHERLY ISL              53     270/ 12/ 15   N/A
CALUMET HARBOR             54     290/  5/ 10 1010.8R
BURNS HARBOR               54     280/  9/ 10 1011.5R
MICHIGAN CITY              53     250/ 15/ 17   N/A
ST. JOSEPH                 51 50  300/ 14/ 17 1011.1          2/ 4
$$

ILZ025>027-034>036-040-047-049-050-058-095>099-200900-
WEST-CENTRAL ILLINOIS
  
CITY           SKY/WX    TMP DP  RH WIND       PRES   REMARKS
QUINCY         MOCLDY    51  45  79 NW8       29.99R                  
GALESBURG*     MOCLDY    49  46  86 W12       29.98R                  
MACOMB*        CLOUDY    50  47  90 NW8       30.00R                  
JACKSONVILLE*  CLOUDY    53  47  81 W6        29.99R                  
PITTSFIELD*    CLOUDY    54  47  80 NW5       30.01R                  
$$

ILZ028>032-037-038-041>044-048-051>054-059>061-200900-
CENTRAL ILLINOIS
  
CITY           SKY/WX    TMP DP  RH WIND       PRES   REMARKS
PONTIAC        CLOUDY    53  52  98 W13       29.93S                  
BLOOMINGTON    CLOUDY    52  47  83 W9        29.95R                  
DECATUR        FAIR      56  44  64 NW12      29.96R                  
PEORIA         CLOUDY    53  47  79 NW9       29.95S                  
LACON*         FAIR      51  46  84 W9        29.94R                  
LINCOLN*       FAIR      55  48  77 W3        29.96S                  
SPRINGFIELD    FAIR      53  46  77 W8        29.98R                  
TAYLORVILLE    FAIR      54  46  74 W7        29.98S                  
$$

ILZ033-039-045-046-055>057-062-063-200900-
EAST-CENTRAL ILLINOIS
  
CITY           SKY/WX    TMP DP  RH WIND       PRES   REMARKS
CHAMPAIGN      FAIR      53  49  86 W7        29.95R                  
DANVILLE*      FAIR      56  48  73 W8        29.91R                  
RANTOUL*       FAIR      54  45  73 W10       29.94R                  
MATTOON        FAIR      54  48  80 W8        29.95R                  
PARIS*         FAIR      56  51  84 W9        29.96R                  
$$

ILZ079-100>102-200900-
SOUTHWEST ILLINOIS
  
CITY           SKY/WX    TMP DP  RH WIND       PRES   REMARKS
ALTON          CLEAR     55  51  86 NW3       30.00S                  
BELLEVILLE     CLEAR     55  50  84 NW5       29.98R                  
CAHOKIA*       CLEAR     56  50  80 NW6       29.99R                  
$$

ILZ064>066-069>071-074>076-080>082-084>086-088>090-092>094-200900-
SOUTH-CENTRAL ILLINOIS
  
CITY           SKY/WX    TMP DP  RH WIND       PRES   REMARKS
CARBONDALE     FAIR      58  54  86 N5        29.99R                  
CAIRO*         FAIR      62  58  86 CALM      29.99R                  
EFFINGHAM*     FAIR      53  50  89 W5        29.99S                  
MARION         FAIR      60  54  82 CALM      30.00R                  
MT. VERNON     FAIR      53  51  93 CALM      29.99R                  
CENTRALIA*     CLEAR     58  53  84 NW5       29.98S                  
SALEM*         FAIR      58  51  79 NW3       29.99R                  
METROPOLIS*    FAIR      59  56  92 CALM      29.99R                  
$$

ILZ067-068-072-073-078-083-087-091-200900-
SOUTHEAST ILLINOIS
  
CITY           SKY/WX    TMP DP  RH WIND       PRES   REMARKS
LAWRENCEVILLE  FAIR      60  48  64 NW13      29.97R                  
FLORA*         FAIR      58  51  79 CALM      29.99R                  
FAIRFIELD*     FAIR      60  50  70 CALM      29.98R                  
HARRISBURG*    FAIR      60  58  92 NW5       29.99R                  
ROBINSON*      FAIR      56  51  85 NW5       29.97R                  
CARMI*         FAIR      57  54  88 NW7       29.98R                  
$$

ABBREVIATIONS USED IN REMARKS
   TC - TEMPERATURE IN CELSIUS
  WCI - WIND CHILL INDEX
   HX - HEAT INDEX
  VSB - VISIBILITY
$$